[[{"header":{"parameterUnit":"m.s-1","parameterCategory":1,"la1":30.2991,"la2":30.254,"lo1":-89.0895,"lo2":-89.0444,"dy":0.0017,"dx":0.0017,"nx":28,"ny":28,"refTime":"2023-10-12T03:00:00:Z","depth":0,"parameterNumber":2,"parameterNumberName":"U-component_of_WINDS"},"data":[0,0,0,0,0,0,0,0,0,0,0,0,0,0,0,0,0,0,0,0,0,0,0,0,0,0,0,0,0,0,0,0,0,0,0,0,0,0,0,0,0,0,0,0,0,0,0,0,0,0,0,0,0,0,0,0,0,0,-1.483,-1.4831,0,-1.4955,-1.4957,-1.4958,-1.4958,-1.4956,-1.4955,-1.4953,-1.5082,-1.5087,-1.5091,0,0,0,0,0,0,0,0,0,0,0,0,0,-1.459,-1.4595,-1.483,-1.4832,-1.4833,-1.4955,-1.4957,-1.4958,-1.4958,-1.4956,-1.4954,-1.4953,-1.508,-1.5086,-1.5092,0,0,0,0,0,0,0,0,0,0,0,0,0,-1.4703,-1.4596,-1.483,-1.4848,-1.4851,-1.4955,-1.4957,-1.4959,-1.4959,-1.4956,-1.4954,-1.4952,-1.5078,-1.5085,-1.5093,-1.5187,0,0,-1.5115,-1.5119,0,0,0,0,0,0,0,0,-1.4697,-1.4712,-1.4844,-1.4847,-1.485,-1.4939,-1.4919,-1.5036,-1.4959,-1.4918,-1.4953,-1.495,-1.5036,-1.5047,-1.5076,-1.5193,-1.5199,-1.5116,-1.512,-1.5124,-1.5126,0,0,0,0,0,0,0,-1.4689,-1.4706,-1.488,-1.4845,-1.4849,-1.4849,-1.4863,-1.4941,-1.4989,-1.4921,-1.4921,-1.4936,-1.5037,-1.5069,-1.5079,-1.5201,-1.5116,-1.5122,-1.5127,-1.513,-1.5402,-1.5405,0,0,0,0,0,0,-1.4677,-1.47,-1.4876,-1.4883,-1.4766,-1.4856,-1.4871,-1.4913,-1.4988,-1.4997,-1.4938,-1.4936,-1.5057,-1.507,-1.5083,-1.5199,-1.5124,-1.5131,-1.5135,-1.5399,-1.5403,-1.5406,0,0,0,0,0,0,-1.4672,-1.4693,-1.4871,-1.4792,-1.4814,-1.4862,-1.491,-1.4916,-1.4948,-1.5001,-1.501,-1.4961,-1.5056,-1.5073,-1.5161,-1.5204,-1.5134,-1.5141,-1.5396,-1.54,-1.5404,-1.5432,0,0,0,0,0,0,-1.4665,-1.4691,-1.4728,-1.4793,-1.4819,-1.4947,-1.4912,-1.4921,-1.496,-1.4958,-1.5025,-1.5034,-1.5055,-1.515,-1.5169,-1.5213,-1.5146,-1.5392,-1.5398,-1.5403,-1.5428,-1.5437,-1.5444,0,0,0,0,0,-1.4657,-1.4731,-1.473,-1.4751,-1.4865,-1.4949,-1.4964,-1.4987,-1.4964,-1.5001,-1.5035,-1.5032,-1.5196,-1.5159,-1.518,-1.5227,-1.539,-1.5396,-1.5402,-1.5424,-1.5435,-1.5444,0,0,0,0,0,0,-1.467,-1.474,-1.4739,-1.4836,-1.4887,-1.4949,-1.4997,-1.4998,-1.5057,-1.5052,-1.5078,-1.5093,-1.5182,-1.5213,-1.5171,-1.5322,-1.529,-1.5301,-1.5299,-1.531,-1.5318,-1.5309,-1.5153,0,0,0,0,0,-1.4684,-1.4746,-1.4804,-1.4884,-1.4909,-1.4949,-1.4986,-1.4999,-1.5053,-1.5074,-1.5115,-1.5167,-1.523,-1.5272,-1.5333,-1.5431,-1.5446,-1.5474,-1.5482,-1.5489,-1.5498,-1.5553,-1.5566,-1.5426,-1.5426,-1.5426,0,0,-1.4714,-1.476,-1.4798,-1.4888,-1.4929,-1.4993,-1.4967,-1.5036,-1.5084,-1.5085,-1.5171,-1.5203,-1.5262,-1.5356,-1.54,-1.5385,-1.554,-1.5497,-1.5502,-1.5508,-1.556,-1.5574,-1.5585,-1.543,-1.543,-1.5429,0,0,-1.4802,-1.4842,-1.4914,-1.4955,-1.5017,-1.5042,-1.5059,-1.5122,-1.5143,-1.523,-1.5232,-1.5289,-1.5397,-1.544,-1.5476,-1.5578,-1.5577,-1.5597,-1.5642,-1.5695,-1.5706,-1.5716,-1.5753,-1.5766,-1.5606,-1.5606,-1.5606,0,-1.4832,-1.4928,-1.495,-1.502,-1.5059,-1.5063,-1.5135,-1.5174,-1.5253,-1.528,-1.5262,-1.5398,-1.5438,-1.5543,-1.5568,-1.5596,-1.5617,-1.5591,-1.5702,-1.5712,-1.5722,-1.5758,-1.5772,-1.5608,-1.5608,-1.5608,-1.5608,0,-1.4962,-1.5029,-1.5079,-1.5155,-1.52,-1.5271,-1.5303,-1.5346,-1.5355,-1.5382,-1.547,-1.5519,-1.559,-1.5615,-1.5625,-1.5721,-1.571,-1.5697,-1.5665,-1.5737,-1.5771,-1.5785,-1.5611,-1.561,-1.561,-1.5609,0,0,-1.5063,-1.515,-1.5168,-1.5202,-1.527,-1.5323,-1.5393,-1.5462,-1.5499,-1.5552,-1.5612,-1.5703,-1.5692,-1.5732,-1.5746,-1.5792,-1.5871,-1.5774,-1.5776,-1.5791,-1.5981,-1.5991,-1.6006,-1.587,-1.5873,-1.5875,-1.5976,0,-1.5159,-1.5285,-1.5306,-1.5416,-1.5478,-1.5482,-1.5543,-1.5591,-1.5618,-1.5675,-1.5704,-1.5769,-1.5748,-1.5773,-1.5818,-1.5852,-1.591,-1.5845,-1.5927,-1.5929,-1.5913,-1.6024,-1.6035,-1.6128,-1.5989,-1.5991,-1.5993,0,-1.5288,-1.5345,-1.5461,-1.5521,-1.5548,-1.5602,-1.5667,-1.5721,-1.5776,-1.5792,-1.5837,-1.5845,-1.5918,-1.5882,-1.5983,-1.5938,-1.5972,-1.5994,-1.5998,-1.6008,-1.5967,-1.6038,-1.6158,-1.6172,-1.6014,-1.6012,-1.6011,0,-1.5351,-1.5457,-1.554,-1.5569,-1.5641,-1.5679,-1.571,-1.5762,-1.5802,-1.5859,-1.5885,-1.5949,-1.5985,-1.6034,-1.606,-1.6031,-1.6159,-1.6125,-1.6175,-1.6174,-1.6203,-1.6201,-1.6332,-1.6223,-1.6223,-1.6223,-1.6223,0,-1.5457,-1.5528,-1.557,-1.5621,-1.57,-1.5724,-1.5802,-1.5832,-1.5878,-1.5936,-1.5942,-1.5995,-1.6025,-1.6082,-1.6102,-1.6183,-1.6199,-1.6214,-1.6219,-1.6215,-1.6213,-1.6239,-1.6233,-1.6227,-1.6226,-1.6225,-1.6224,0,-1.5542,-1.5572,-1.5663,-1.5723,-1.5739,-1.5796,-1.5847,-1.5896,-1.5922,-1.5995,-1.6013,-1.6054,-1.6122,-1.6152,-1.6236,-1.6249,-1.6342,-1.6341,-1.6323,-1.6325,-1.6374,-1.637,-1.6527,-1.6549,-1.6425,-1.6426,-1.6427,0,-1.5608,-1.5663,-1.5728,-1.5767,-1.5799,-1.5861,-1.5902,-1.5927,-1.5969,-1.6035,-1.6077,-1.6145,-1.6201,-1.6309,-1.6347,-1.6411,-1.6413,-1.6463,-1.6422,-1.6416,-1.6414,-1.6411,-1.6417,-1.6471,-1.6472,-1.6473,-1.6474,0,-1.5722,-1.5734,-1.5793,-1.5857,-1.5906,-1.5958,-1.6008,-1.6039,-1.6072,-1.6119,-1.6188,-1.6232,-1.6317,-1.6385,-1.6451,-1.6483,-1.6485,-1.6486,-1.6502,-1.6498,-1.6486,-1.6494,-1.6345,-1.6483,-1.6482,-1.6482,-1.6481,-1.6481,-1.5801,-1.5849,-1.5903,-1.5968,-1.6008,-1.6055,-1.6105,-1.6137,-1.6196,-1.6267,-1.6278,-1.6352,-1.6405,-1.6494,-1.6528,-1.6586,-1.6574,-1.6596,-1.6601,-1.6607,-1.661,-1.6476,-1.6598,-1.6598,-1.6598,-1.6598,-1.6598,0,-1.5916,-1.595,-1.601,-1.608,-1.6131,-1.6127,-1.6183,-1.6226,-1.6291,-1.634,-1.6395,-1.6474,-1.654,-1.6582,-1.6648,-1.6686,-1.6689,-1.6703,-1.6701,-1.6708,-1.6617,-1.6598,-1.67,-1.67,-1.67,-1.67,-1.67,-1.67,-1.5982,-1.6064,-1.6083,-1.6185,-1.6219,-1.6292,-1.6324,-1.6367,-1.6406,-1.6495,-1.6549,-1.6576,-1.6622,-1.6691,-1.6751,-1.6762,-1.6786,-1.6801,-1.6811,-1.6725,-1.6715,-1.6705,-1.6687,-1.6806,-1.6806,-1.6898,-1.6899,-1.6899]},{"header":{"parameterUnit":"m.s-1","parameterCategory":1,"la1":30.2991,"la2":30.254,"lo1":-89.0895,"lo2":-89.0444,"dy":0.0017,"dx":0.0017,"nx":28,"ny":28,"refTime":"2023-10-12T03:00:00:Z","depth":0,"parameterNumber":3,"parameterNumberName":"V-component_of_WINDS"},"data":[0,0,0,0,0,0,0,0,0,0,0,0,0,0,0,0,0,0,0,0,0,0,0,0,0,0,0,0,0,0,0,0,0,0,0,0,0,0,0,0,0,0,0,0,0,0,0,0,0,0,0,0,0,0,0,0,0,0,-6.4492,-6.4493,0,-6.4625,-6.4626,-6.4628,-6.4576,-6.4573,-6.457,-6.4567,-6.4696,-6.4702,-6.4708,0,0,0,0,0,0,0,0,0,0,0,0,0,-6.4187,-6.4193,-6.4492,-6.4493,-6.4495,-6.4624,-6.4626,-6.4628,-6.4576,-6.4573,-6.4569,-6.4565,-6.4694,-6.4701,-6.4709,0,0,0,0,0,0,0,0,0,0,0,0,0,-6.4319,-6.4195,-6.4491,-6.4485,-6.4486,-6.4624,-6.4626,-6.4628,-6.4577,-6.4573,-6.4568,-6.4564,-6.4691,-6.4701,-6.471,-6.486,0,0,-6.4739,-6.4743,0,0,0,0,0,0,0,0,-6.4312,-6.433,-6.4484,-6.4486,-6.4487,-6.4579,-6.4566,-6.4706,-6.4578,-6.4542,-6.4567,-6.4561,-6.466,-6.4672,-6.4707,-6.4866,-6.4872,-6.474,-6.4745,-6.4749,-6.4752,0,0,0,0,0,0,0,-6.4303,-6.4324,-6.4544,-6.4487,-6.4488,-6.4473,-6.4487,-6.4592,-6.4625,-6.4545,-6.4542,-6.4558,-6.466,-6.4698,-6.4709,-6.4874,-6.4739,-6.4748,-6.4754,-6.4757,-6.5162,-6.5167,0,0,0,0,0,0,-6.4294,-6.4317,-6.454,-6.4548,-6.4386,-6.4483,-6.4498,-6.4554,-6.4624,-6.463,-6.4562,-6.4556,-6.4684,-6.4698,-6.4714,-6.4894,-6.4749,-6.4758,-6.4764,-6.5157,-6.5163,-6.5168,0,0,0,0,0,0,-6.4288,-6.4314,-6.4534,-6.4432,-6.4459,-6.4493,-6.4556,-6.4559,-6.4597,-6.4637,-6.4642,-6.4595,-6.4681,-6.47,-6.4824,-6.4898,-6.4762,-6.4771,-6.5151,-6.5159,-6.5166,-6.5256,0,0,0,0,0,0,-6.4279,-6.4312,-6.4372,-6.4434,-6.4464,-6.4645,-6.4561,-6.4565,-6.4614,-6.4607,-6.4669,-6.4675,-6.4679,-6.4811,-6.4834,-6.4908,-6.4778,-6.5144,-6.5154,-6.5163,-6.5247,-6.5266,-6.5282,0,0,0,0,0,-6.4268,-6.439,-6.4375,-6.4402,-6.4539,-6.465,-6.4667,-6.4671,-6.462,-6.4679,-6.4705,-6.4673,-6.4886,-6.4824,-6.4849,-6.4928,-6.514,-6.5151,-6.5162,-6.5239,-6.5262,-6.5282,0,0,0,0,0,0,-6.4333,-6.4398,-6.4382,-6.4528,-6.4584,-6.4641,-6.4715,-6.4695,-6.4765,-6.4755,-6.4754,-6.4769,-6.4897,-6.4924,-6.4854,-6.5076,-6.5005,-6.5022,-6.5054,-6.5077,-6.5094,-6.5085,-6.4786,0,0,0,0,0,-6.4365,-6.4452,-6.4503,-6.4626,-6.4656,-6.4681,-6.4729,-6.4727,-6.4784,-6.4807,-6.4841,-6.4896,-6.4975,-6.5027,-6.5102,-6.525,-6.5262,-6.5317,-6.5334,-6.5349,-6.5364,-6.5443,-6.5468,-6.5206,-6.5206,-6.5206,0,0,-6.4431,-6.4477,-6.4531,-6.4641,-6.4684,-6.4772,-6.4701,-6.4796,-6.4861,-6.482,-6.4941,-6.4968,-6.5028,-6.5165,-6.5227,-6.5192,-6.5439,-6.5363,-6.5375,-6.5382,-6.5457,-6.5482,-6.5504,-6.5214,-6.5212,-6.5211,0,0,-6.4596,-6.464,-6.4748,-6.4793,-6.486,-6.4876,-6.4902,-6.4962,-6.498,-6.5101,-6.5072,-6.5147,-6.5284,-6.5328,-6.5369,-6.555,-6.5524,-6.5574,-6.5667,-6.5745,-6.5766,-6.5784,-6.5848,-6.5871,-6.5589,-6.5589,-6.5589,0,-6.4668,-6.4802,-6.4805,-6.4904,-6.4952,-6.4922,-6.5031,-6.5073,-6.5161,-6.5194,-6.5154,-6.5325,-6.5363,-6.551,-6.5554,-6.5588,-6.5616,-6.5567,-6.5763,-6.5781,-6.5798,-6.586,-6.5884,-6.5595,-6.5594,-6.5594,-6.5593,0,-6.4887,-6.498,-6.5059,-6.5147,-6.5204,-6.5307,-6.5324,-6.5381,-6.5374,-6.5393,-6.5515,-6.5561,-6.5645,-6.5679,-6.5672,-6.5825,-6.5801,-6.5762,-6.569,-6.5829,-6.5886,-6.591,-6.5603,-6.5601,-6.5599,-6.5598,0,0,-6.5097,-6.5187,-6.5215,-6.5255,-6.5327,-6.5397,-6.5497,-6.5582,-6.563,-6.5691,-6.5774,-6.5891,-6.5855,-6.5901,-6.5899,-6.5967,-6.6108,-6.592,-6.5921,-6.5953,-6.6278,-6.6307,-6.6334,-6.609,-6.6095,-6.6099,-6.6273,0,-6.5268,-6.5447,-6.5453,-6.5616,-6.5701,-6.5674,-6.5761,-6.5813,-6.5834,-6.5907,-6.5928,-6.6011,-6.5958,-6.5986,-6.6052,-6.6077,-6.6173,-6.6064,-6.6166,-6.617,-6.6153,-6.6364,-6.6395,-6.6557,-6.6295,-6.6299,-6.6302,0,-6.5491,-6.5562,-6.5734,-6.5794,-6.5829,-6.5908,-6.5986,-6.6057,-6.6114,-6.6124,-6.6176,-6.6164,-6.6264,-6.6189,-6.6327,-6.6253,-6.6294,-6.6313,-6.6319,-6.6329,-6.6244,-6.6379,-6.6609,-6.6634,-6.6337,-6.6334,-6.6332,0,-6.5627,-6.5764,-6.5885,-6.592,-6.5993,-6.6049,-6.6081,-6.6135,-6.6185,-6.6251,-6.6283,-6.636,-6.6402,-6.646,-6.6468,-6.6413,-6.6606,-6.6532,-6.6616,-6.6616,-6.6658,-6.6655,-6.6898,-6.6685,-6.6685,-6.6684,-6.6684,0,-6.5817,-6.5923,-6.5948,-6.6022,-6.614,-6.6145,-6.626,-6.6288,-6.6336,-6.6413,-6.6393,-6.6465,-6.6471,-6.6545,-6.6552,-6.6664,-6.6683,-6.6693,-6.6693,-6.6695,-6.6694,-6.6722,-6.6711,-6.6691,-6.6689,-6.6688,-6.6687,0,-6.5988,-6.6009,-6.6139,-6.6198,-6.6215,-6.6299,-6.6348,-6.6418,-6.6437,-6.6535,-6.6558,-6.6587,-6.6673,-6.6687,-6.6787,-6.6791,-6.6926,-6.6915,-6.6908,-6.6906,-6.6989,-6.6981,-6.7259,-6.7295,-6.7059,-6.7061,-6.7063,0,-6.6108,-6.619,-6.6258,-6.631,-6.6346,-6.6429,-6.6481,-6.6488,-6.6542,-6.6614,-6.6675,-6.676,-6.6828,-6.6966,-6.6994,-6.7071,-6.7061,-6.7153,-6.7072,-6.7072,-6.7062,-6.7058,-6.7065,-6.7168,-6.7171,-6.7173,-6.7175,0,-6.6319,-6.6326,-6.6402,-6.6483,-6.6546,-6.6609,-6.6668,-6.6711,-6.6725,-6.6787,-6.6876,-6.6929,-6.7033,-6.7116,-6.7192,-6.7223,-6.7201,-6.72,-6.7224,-6.7226,-6.7219,-6.7224,-6.695,-6.7194,-6.7192,-6.719,-6.7189,-6.7189,-6.6469,-6.654,-6.66,-6.6685,-6.6731,-6.6787,-6.6856,-6.6884,-6.6959,-6.7046,-6.7045,-6.7143,-6.7197,-6.7297,-6.7333,-6.7408,-6.7378,-6.7412,-6.742,-6.7429,-6.7437,-6.7207,-6.7421,-6.7421,-6.742,-6.742,-6.742,0,-6.6678,-6.6716,-6.6795,-6.688,-6.6947,-6.6923,-6.6987,-6.7044,-6.7131,-6.7185,-6.7253,-6.7355,-6.7436,-6.7471,-6.755,-6.7603,-6.7595,-6.7624,-6.762,-6.7627,-6.7459,-6.7431,-6.7629,-6.7629,-6.7629,-6.7629,-6.7629,-6.7629,-6.6796,-6.6915,-6.6929,-6.707,-6.7105,-6.7203,-6.7242,-6.7293,-6.7336,-6.7452,-6.752,-6.7543,-6.7588,-6.7671,-6.7743,-6.7751,-6.7781,-6.7814,-6.7817,-6.766,-6.7639,-6.7619,-6.7592,-6.782,-6.7821,-6.7979,-6.798,-6.7981]}]]